Date String (YYYY-MM-DD hh:mm:ss) UTC,Instrument flags,Ambient pressure (hPa),Sample flow (lpm),Bypass flow (lpm),Sample temperature (°C),Ambient temperature (°C),ASC tube jacket temperature (°C),LED temperature (°C),Box temperature (°C),Sample RH (%),Span deviation,Mass concentration (μg/m³),Mass concentration (μg/m³),Mass concentration (μg/m³)
DateTimeUTC,F1_M11,P_M11,Q1_M11,Q2_M11,T1_M11,T2_M11,T3_M11,T4_M11,T5_M11,U1_M11,ZSPAN_M11,X0_M11,X2_M11,X1_M11
2023-05-18 17:00:00,,0831.5,4.99,0.00,29.9,28.5,00.0,38.2,31.6,28.4,0000.4,0011.21,0006.63,0005.89
2023-05-18 17:01:00,,0831.5,5.01,0.00,30.0,28.5,00.0,38.3,31.6,27.7,0000.7,0011.26,0006.66,0005.88
2023-05-18 17:02:00,,0831.6,5.00,0.00,30.0,28.6,00.0,38.3,31.6,28.2,0001.0,0011.12,0006.60,0005.86
2023-05-18 17:03:00,,0831.6,5.01,0.00,30.0,28.6,00.0,38.3,31.6,27.9,0001.7,0011.11,0006.60,0005.86
2023-05-18 17:04:00,,0831.5,4.99,0.00,30.0,28.6,00.0,38.3,31.6,28.3,0002.3,0011.03,0006.59,0005.84
2023-05-18 17:05:00,,0831.6,4.99,0.00,30.0,28.5,00.0,38.3,31.7,28.3,0002.4,0011.03,0006.58,0005.83
2023-05-18 17:06:00,,0831.5,5.00,0.00,30.0,27.2,00.0,38.3,31.5,28.1,0002.9,0010.91,0006.60,0005.87
2023-05-18 17:07:00,,0831.5,5.00,0.00,29.9,25.8,00.0,38.2,31.3,27.8,0002.8,0010.40,0006.65,0005.92
2023-05-18 17:08:00,,0831.5,5.00,0.00,29.9,25.6,00.0,38.1,31.1,27.8,0002.5,0010.60,0006.74,0005.97
2023-05-18 17:09:00,,0831.5,5.01,0.00,29.8,25.8,00.0,38.1,31.0,28.3,0002.5,0010.53,0006.78,0006.04
2023-05-18 17:10:00,,0831.5,5.00,0.00,29.7,26.1,00.0,38.1,31.0,29.1,0002.6,0010.35,0006.87,0006.11
2023-05-18 17:11:00,,0831.5,5.00,0.00,29.7,26.5,00.0,38.1,31.1,29.5,0002.6,0011.05,0006.93,0006.18
2023-05-18 17:12:00,,0831.5,5.00,0.00,29.6,26.8,00.0,38.0,31.1,28.1,0002.1,0011.59,0006.95,0006.23
2023-05-18 17:13:00,,0831.4,4.99,0.00,29.6,27.1,00.0,38.0,31.2,28.5,0002.0,0011.93,0007.03,0006.28
2023-05-18 17:14:00,,0831.5,4.98,0.00,29.6,27.3,00.0,38.0,31.2,28.5,0002.0,0013.09,0007.10,0006.33
2023-05-18 17:15:00,,0831.4,5.00,0.00,29.6,27.5,00.0,38.0,31.2,29.5,0001.5,0013.27,0007.13,0006.37
2023-05-18 17:16:00,,0831.5,5.01,0.00,29.6,27.7,00.0,38.0,31.2,29.2,0001.6,0013.27,0007.15,0006.39
2023-05-18 17:17:00,,0831.4,5.01,0.00,29.6,27.8,00.0,38.0,31.3,28.2,0001.1,0013.32,0007.19,0006.40
2023-05-18 17:18:00,,0831.4,4.98,0.00,29.7,27.9,00.0,38.0,31.3,28.5,0001.0,0013.32,0007.20,0006.40
2023-05-18 17:19:00,,0831.4,4.99,0.00,29.7,28.0,00.0,38.0,31.3,27.9,0001.5,0013.20,0007.17,0006.39
2023-05-18 17:20:00,,0831.4,5.01,0.00,29.7,28.1,00.0,38.0,31.3,28.3,0001.0,0013.34,0007.20,0006.40
2023-05-18 17:21:00,,0831.3,5.01,0.00,29.7,28.1,00.0,38.0,31.3,28.6,0000.4,0013.47,0007.23,0006.45
2023-05-18 17:22:00,,0831.4,5.00,0.00,29.7,28.2,00.0,38.0,31.3,28.3,-000.2,0013.27,0007.27,0006.49
2023-05-18 17:23:00,,0831.3,4.99,0.00,29.7,28.2,00.0,38.0,31.4,30.1,-000.3,0012.59,0007.34,0006.54
2023-05-18 17:24:00,,0831.3,5.00,0.00,29.7,28.3,00.0,38.1,31.4,29.5,-000.6,0012.65,0007.40,0006.60
2023-05-18 17:25:00,,0831.3,4.99,0.00,29.8,28.3,00.0,38.1,31.4,29.1,-000.6,0011.95,0007.45,0006.70
2023-05-18 17:26:00,,0831.3,5.00,0.00,29.8,28.4,00.0,38.1,31.4,29.3,-000.3,0011.76,0007.57,0006.83
2023-05-18 17:27:00,,0831.3,5.00,0.00,29.8,28.4,00.0,38.1,31.5,29.9,-000.4,0012.04,0007.73,0007.01
2023-05-18 17:28:00,,0831.3,5.00,0.00,29.8,28.4,00.0,38.1,31.5,29.3,-000.8,0012.02,0007.79,0007.13
2023-05-18 17:29:00,,0831.3,5.00,0.00,29.9,28.5,00.0,38.1,31.5,29.0,-000.7,0012.15,0007.90,0007.24
2023-05-18 17:30:00,,0831.3,5.00,0.00,29.9,28.5,00.0,38.1,31.5,28.7,-001.2,0012.29,0008.03,0007.38
2023-05-18 17:31:00,,0831.3,5.00,0.00,29.9,28.5,00.0,38.2,31.6,28.6,-001.3,0012.99,0008.12,0007.48
2023-05-18 17:32:00,,0831.3,5.00,0.00,29.9,28.6,00.0,38.2,31.6,28.8,-000.8,0013.14,0008.19,0007.56
2023-05-18 17:33:00,,0831.3,5.00,0.00,29.9,28.6,00.0,38.2,31.6,28.3,-000.8,0013.14,0008.26,0007.62
2023-05-18 17:34:00,,0831.3,4.99,0.00,29.9,28.6,00.0,38.2,31.6,27.8,-000.7,0013.07,0008.30,0007.68
2023-05-18 17:35:00,,0831.3,4.99,0.00,30.0,28.6,00.0,38.2,31.6,28.1,-000.5,0013.01,0008.34,0007.76
2023-05-18 17:36:00,,0831.2,5.01,0.00,30.0,28.6,00.0,38.2,31.7,27.7,-000.5,0012.76,0008.38,0007.78
2023-05-18 17:37:00,,0831.2,5.00,0.00,30.0,28.7,00.0,38.3,31.7,27.1,-000.8,0013.21,0008.37,0007.75
2023-05-18 17:38:00,,0831.2,5.01,0.00,30.0,28.7,00.0,38.3,31.7,27.3,-001.1,0013.12,0008.33,0007.70
2023-05-18 17:39:00,,0831.3,4.98,0.00,30.0,28.0,00.0,38.3,31.6,28.3,-000.7,0013.16,0008.34,0007.68
2023-05-18 17:40:00,,0831.2,5.00,0.00,30.0,26.1,00.0,38.2,31.3,28.6,-000.6,0013.20,0008.33,0007.67
2023-05-18 17:41:00,,0831.2,5.00,0.00,29.9,25.1,00.0,38.1,31.1,28.4,-000.4,0013.70,0008.34,0007.65
2023-05-18 17:42:00,,0831.3,5.01,0.00,29.8,25.1,00.0,38.0,30.9,27.9,-000.1,0013.42,0008.34,0007.63
2023-05-18 17:43:00,,0831.2,5.01,0.00,29.6,25.4,00.0,38.0,30.9,28.1,-000.2,0013.45,0008.38,0007.63
2023-05-18 17:44:00,,0831.3,4.99,0.00,29.6,25.8,00.0,38.0,30.9,28.8,0000.1,0013.39,0008.35,0007.61
2023-05-18 17:45:00,,0831.3,4.99,0.00,29.6,26.2,00.0,38.0,31.0,29.1,0000.3,0013.53,0008.39,0007.61
2023-05-18 17:46:00,,0831.3,5.00,0.00,29.5,26.6,00.0,38.0,31.0,29.0,0000.7,0013.73,0008.49,0007.64
2023-05-18 17:47:00,,0831.3,5.00,0.00,29.5,26.9,00.0,38.0,31.1,28.7,0000.7,0013.94,0008.57,0007.72
2023-05-18 17:48:00,,0831.4,5.00,0.00,29.5,27.2,00.0,37.9,31.1,28.5,0000.7,0013.68,0008.63,0007.80
2023-05-18 17:49:00,,0831.5,5.00,0.00,29.5,27.4,00.0,37.9,31.1,28.3,0000.5,0013.70,0008.70,0007.88
2023-05-18 17:50:00,,0831.5,5.00,0.00,29.5,27.5,00.0,37.9,31.1,28.4,0000.0,0013.78,0008.78,0007.96
2023-05-18 17:51:00,,0831.5,5.00,0.00,29.5,27.7,00.0,37.9,31.2,28.7,0000.4,0013.77,0008.81,0008.01
2023-05-18 17:52:00,,0831.5,4.99,0.00,29.5,27.8,00.0,37.9,31.2,28.7,0000.4,0013.31,0008.80,0008.04
2023-05-18 17:53:00,,0831.6,5.00,0.00,29.6,27.9,00.0,37.9,31.2,28.4,0000.6,0012.92,0008.86,0008.09
2023-05-18 17:54:00,,0831.6,4.99,0.00,29.6,28.0,00.0,37.9,31.2,28.3,0000.3,0013.04,0008.92,0008.15
2023-05-18 17:55:00,,0831.6,5.00,0.00,29.6,28.0,00.0,37.9,31.2,28.2,0000.0,0013.10,0008.98,0008.20
2023-05-18 17:56:00,,0831.7,5.02,0.00,29.6,28.1,00.0,37.9,31.3,28.1,-000.1,0012.96,0008.96,0008.24
2023-05-18 17:57:00,,0831.6,5.00,0.00,29.6,28.2,00.0,38.0,31.3,27.9,-000.4,0013.00,0008.89,0008.22
2023-05-18 17:58:00,,0831.6,5.00,0.00,29.6,28.2,00.0,38.0,31.3,28.3,-000.3,0012.82,0008.85,0008.15
2023-05-18 17:59:00,,0831.5,4.99,0.00,29.7,28.3,00.0,38.0,31.3,28.4,-000.2,0012.57,0008.83,0008.12
